Time,TemperatureF,DewpointF,PressureIn,WindDirection,WindDirectionDegrees,WindSpeedMPH,WindSpeedGustMPH,Humidity,HourlyPrecipIn,Conditions,Clouds,dailyrainin,SoftwareType,DateUTC
2013-03-07 00:00:00,41.0,30.1,30.07,NW,320,8.1,8.1,65,0.00,CLR,,0.00,WeatherDisplay:10.37,2013-03-07 05:00:00,
2013-03-07 00:01:00,41.0,30.1,30.07,NW,320,8.1,8.1,65,0.00,CLR,,0.00,WeatherDisplay:10.37,2013-03-07 05:01:00,
2013-03-07 00:06:00,41.0,30.1,30.07,NW,320,8.1,8.1,65,0.00,CLR,,0.00,WeatherDisplay:10.37,2013-03-07 05:06:00,
2013-03-07 00:11:00,41.0,30.1,30.08,NW,310,6.9,6.9,65,0.00,CLR,,0.00,WeatherDisplay:10.37,2013-03-07 05:11:00,
2013-03-07 00:16:00,41.0,30.1,30.08,NW,310,6.9,6.9,65,0.00,CLR,,0.00,WeatherDisplay:10.37,2013-03-07 05:16:00,
2013-03-07 00:21:00,41.0,30.1,30.08,NW,310,6.9,6.9,65,0.00,CLR,,0.00,WeatherDisplay:10.37,2013-03-07 05:21:00,
2013-03-07 00:26:00,41.0,30.1,30.08,NW,310,6.9,6.9,65,0.00,CLR,,0.00,WeatherDisplay:10.37,2013-03-07 05:26:00,
2013-03-07 00:31:00,39.2,29.9,30.08,NW,310,6.9,6.9,69,0.00,CLR,,0.00,WeatherDisplay:10.37,2013-03-07 05:31:00,
2013-03-07 00:36:00,39.2,29.9,30.08,NW,310,5.8,5.8,69,0.00,CLR,,0.00,WeatherDisplay:10.37,2013-03-07 05:36:00,
2013-03-07 00:41:00,39.2,29.9,30.08,NW,310,5.8,5.8,69,0.00,CLR,,0.00,WeatherDisplay:10.37,2013-03-07 05:41:00,
2013-03-07 00:46:00,39.2,29.9,30.08,NW,310,5.8,5.8,69,0.00,CLR,,0.00,WeatherDisplay:10.37,2013-03-07 05:46:00,
2013-03-07 00:51:00,39.2,29.9,30.08,NW,310,5.8,5.8,69,0.00,CLR,,0.00,WeatherDisplay:10.37,2013-03-07 05:51:00,
2013-03-07 00:56:00,39.2,29.9,30.08,NW,310,5.8,5.8,69,0.00,CLR,,0.00,WeatherDisplay:10.37,2013-03-07 05:56:00,
2013-03-07 01:01:00,39.2,29.9,30.09,NW,310,6.9,6.9,69,0.00,CLR,,0.00,WeatherDisplay:10.37,2013-03-07 06:01:00,
2013-03-07 01:06:00,39.2,29.9,30.09,NW,310,6.9,6.9,69,0.00,CLR,,0.00,WeatherDisplay:10.37,2013-03-07 06:06:00,
2013-03-07 01:11:00,39.2,29.9,30.09,NW,320,9.2,9.2,69,0.00,CLR,,0.00,WeatherDisplay:10.37,2013-03-07 06:11:00,
2013-03-07 01:16:00,39.2,29.9,30.09,NW,320,9.2,9.2,69,0.00,CLR,,0.00,WeatherDisplay:10.37,2013-03-07 06:16:00,
2013-03-07 01:21:00,39.2,29.9,30.09,NW,320,9.2,9.2,69,0.00,CLR,,0.00,WeatherDisplay:10.37,2013-03-07 06:21:00,
2013-03-07 01:26:00,39.2,29.9,30.09,NW,320,9.2,9.2,69,0.00,CLR,,0.00,WeatherDisplay:10.37,2013-03-07 06:26:00,
2013-03-07 01:31:00,39.2,29.9,30.11,NW,320,18.4,18.4,69,0.00,CLR,,0.00,WeatherDisplay:10.37,2013-03-07 06:31:00,
2013-03-07 01:36:00,39.2,29.9,30.11,NW,320,18.4,18.4,69,0.00,CLR,,0.00,WeatherDisplay:10.37,2013-03-07 06:36:00,
2013-03-07 01:41:00,37.4,29.9,30.12,NW,320,8.1,8.1,74,0.00,CLR,,0.00,WeatherDisplay:10.37,2013-03-07 06:41:00,
2013-03-07 01:46:00,37.4,29.9,30.12,NW,320,8.1,8.1,74,0.00,CLR,,0.00,WeatherDisplay:10.37,2013-03-07 06:46:00,
2013-03-07 01:51:00,37.4,29.9,30.12,NW,320,8.1,8.1,74,0.00,CLR,,0.00,WeatherDisplay:10.37,2013-03-07 06:51:00,
2013-03-07 01:56:00,37.4,29.9,30.12,NW,320,8.1,8.1,74,0.00,CLR,,0.00,WeatherDisplay:10.37,2013-03-07 06:56:00,
2013-03-07 02:01:00,37.4,29.9,30.11,NW,320,8.1,8.1,74,0.00,CLR,,0.00,WeatherDisplay:10.37,2013-03-07 07:01:00,
2013-03-07 02:06:00,37.4,29.9,30.11,NW,320,6.9,6.9,74,0.00,CLR,,0.00,WeatherDisplay:10.37,2013-03-07 07:06:00,
2013-03-07 02:11:00,37.4,29.9,30.11,NW,320,6.9,6.9,74,0.00,CLR,,0.00,WeatherDisplay:10.37,2013-03-07 07:11:00,
2013-03-07 02:16:00,37.4,29.9,30.11,NW,320,6.9,6.9,74,0.00,CLR,,0.00,WeatherDisplay:10.37,2013-03-07 07:16:00,
2013-03-07 02:21:00,37.4,29.9,30.11,NNW,330,6.9,6.9,74,0.00,CLR,,0.00,WeatherDisplay:10.37,2013-03-07 07:21:00,
2013-03-07 02:26:00,37.4,29.9,30.11,NNW,330,6.9,6.9,74,0.00,CLR,,0.00,WeatherDisplay:10.37,2013-03-07 07:26:00,
2013-03-07 02:31:00,37.4,29.9,30.11,NNW,330,6.9,6.9,74,0.00,CLR,,0.00,WeatherDisplay:10.37,2013-03-07 07:31:00,
2013-03-07 02:36:00,37.4,29.9,30.11,NNW,330,6.9,6.9,74,0.00,CLR,,0.00,WeatherDisplay:10.37,2013-03-07 07:36:00,
2013-03-07 02:41:00,37.4,29.9,30.11,NW,310,6.9,6.9,74,0.00,CLR,,0.00,WeatherDisplay:10.37,2013-03-07 07:41:00,
2013-03-07 02:46:00,37.4,29.9,30.11,NW,310,6.9,6.9,74,0.00,CLR,,0.00,WeatherDisplay:10.37,2013-03-07 07:46:00,
2013-03-07 02:51:00,37.4,29.9,30.11,NW,310,6.9,6.9,74,0.00,CLR,,0.00,WeatherDisplay:10.37,2013-03-07 07:51:00,
2013-03-07 02:56:00,37.4,29.9,30.11,NW,310,6.9,6.9,74,0.00,CLR,,0.00,WeatherDisplay:10.37,2013-03-07 07:56:00,
2013-03-07 03:01:00,35.6,30.0,30.12,NW,320,6.9,6.9,80,0.00,CLR,,0.00,WeatherDisplay:10.37,2013-03-07 08:01:00,
2013-03-07 03:06:00,35.6,30.0,30.12,NW,320,6.9,6.9,80,0.00,CLR,,0.00,WeatherDisplay:10.37,2013-03-07 08:06:00,
2013-03-07 03:11:00,35.6,30.0,30.12,NW,320,6.9,6.9,80,0.00,CLR,,0.00,WeatherDisplay:10.37,2013-03-07 08:11:00,
2013-03-07 03:16:00,35.6,30.0,30.12,NW,320,6.9,6.9,80,0.00,CLR,,0.00,WeatherDisplay:10.37,2013-03-07 08:16:00,
2013-03-07 03:21:00,35.6,30.0,30.12,WNW,300,6.9,6.9,80,0.00,CLR,,0.00,WeatherDisplay:10.37,2013-03-07 08:21:00,
2013-03-07 03:26:00,35.6,30.0,30.12,WNW,300,6.9,6.9,80,0.00,CLR,,0.00,WeatherDisplay:10.37,2013-03-07 08:26:00,
2013-03-07 03:32:00,35.6,30.0,30.12,WNW,300,6.9,6.9,80,0.00,CLR,,0.00,WeatherDisplay:10.37,2013-03-07 08:32:00,
2013-03-07 03:37:00,35.6,30.0,30.12,WNW,300,6.9,6.9,80,0.00,CLR,,0.00,WeatherDisplay:10.37,2013-03-07 08:37:00,
2013-03-07 03:42:00,35.6,30.0,30.12,NW,310,6.9,6.9,80,0.00,CLR,,0.00,WeatherDisplay:10.37,2013-03-07 08:42:00,
2013-03-07 03:47:00,35.6,30.0,30.12,NW,310,6.9,6.9,80,0.00,CLR,,0.00,WeatherDisplay:10.37,2013-03-07 08:47:00,
2013-03-07 03:52:00,35.6,30.0,30.12,NW,310,6.9,6.9,80,0.00,CLR,,0.00,WeatherDisplay:10.37,2013-03-07 08:52:00,
2013-03-07 03:57:00,35.6,30.0,30.12,NW,310,6.9,6.9,80,0.00,CLR,,0.00,WeatherDisplay:10.37,2013-03-07 08:57:00,
2013-03-07 04:02:00,35.6,30.0,30.11,NW,320,5.8,5.8,80,0.00,CLR,,0.00,WeatherDisplay:10.37,2013-03-07 09:02:00,
2013-03-07 04:07:00,35.6,30.0,30.11,NW,320,5.8,5.8,80,0.00,CLR,,0.00,WeatherDisplay:10.37,2013-03-07 09:07:00,
2013-03-07 04:12:00,35.6,30.0,30.11,NW,320,5.8,5.8,80,0.00,CLR,,0.00,WeatherDisplay:10.37,2013-03-07 09:12:00,
2013-03-07 04:17:00,35.6,30.0,30.11,NW,320,5.8,5.8,80,0.00,CLR,,0.00,WeatherDisplay:10.37,2013-03-07 09:17:00,
2013-03-07 04:22:00,35.6,30.0,30.14,WNW,290,6.9,6.9,80,0.00,CLR,,0.00,WeatherDisplay:10.37,2013-03-07 09:22:00,
2013-03-07 04:27:00,35.6,30.0,30.14,WNW,290,6.9,6.9,80,0.00,CLR,,0.00,WeatherDisplay:10.37,2013-03-07 09:27:00,
2013-03-07 04:32:00,35.6,30.0,30.14,WNW,290,6.9,6.9,80,0.00,CLR,,0.00,WeatherDisplay:10.37,2013-03-07 09:32:00,
2013-03-07 04:37:00,35.6,30.0,30.14,WNW,290,6.9,6.9,80,0.00,CLR,,0.00,WeatherDisplay:10.37,2013-03-07 09:37:00,
2013-03-07 04:42:00,35.6,30.0,30.14,WNW,300,6.9,6.9,80,0.00,CLR,,0.00,WeatherDisplay:10.37,2013-03-07 09:42:00,
2013-03-07 04:47:00,35.6,30.0,30.14,WNW,300,6.9,6.9,80,0.00,CLR,,0.00,WeatherDisplay:10.37,2013-03-07 09:47:00,
2013-03-07 04:53:00,35.6,30.0,30.14,WNW,300,6.9,6.9,80,0.00,CLR,,0.00,WeatherDisplay:10.37,2013-03-07 09:53:00,
2013-03-07 04:58:00,35.6,30.0,30.14,WNW,300,6.9,6.9,80,0.00,CLR,,0.00,WeatherDisplay:10.37,2013-03-07 09:58:00,
2013-03-07 05:03:00,35.6,30.0,30.15,WNW,300,4.6,4.6,80,0.00,CLR,,0.00,WeatherDisplay:10.37,2013-03-07 10:03:00,
2013-03-07 05:08:00,35.6,30.0,30.15,WNW,300,4.6,4.6,80,0.00,CLR,,0.00,WeatherDisplay:10.37,2013-03-07 10:08:00,
2013-03-07 05:13:00,35.6,30.0,30.15,WNW,300,4.6,4.6,80,0.00,CLR,,0.00,WeatherDisplay:10.37,2013-03-07 10:13:00,
2013-03-07 05:18:00,35.6,30.0,30.15,WNW,300,5.0,5.0,80,0.00,CLR,,0.00,WeatherDisplay:10.37,2013-03-07 10:18:00,
2013-03-07 05:23:00,33.8,30.1,30.15,WNW,300,5.8,5.8,86,0.00,CLR,,0.00,WeatherDisplay:10.37,2013-03-07 10:23:00,
2013-03-07 05:28:00,33.8,30.1,30.15,WNW,300,5.8,5.8,86,0.00,CLR,,0.00,WeatherDisplay:10.37,2013-03-07 10:28:00,
2013-03-07 05:33:00,33.8,30.1,30.15,WNW,300,5.8,5.8,86,0.00,CLR,,0.00,WeatherDisplay:10.37,2013-03-07 10:33:00,
2013-03-07 05:38:00,33.8,30.1,30.15,WNW,300,5.8,5.8,86,0.00,CLR,,0.00,WeatherDisplay:10.37,2013-03-07 10:38:00,
2013-03-07 05:43:00,33.8,30.1,30.15,West,270,3.5,3.5,86,0.00,CLR,,0.00,WeatherDisplay:10.37,2013-03-07 10:43:00,
2013-03-07 05:48:00,33.8,30.1,30.15,West,270,3.5,3.5,86,0.00,CLR,,0.00,WeatherDisplay:10.37,2013-03-07 10:48:00,
2013-03-07 05:53:00,33.8,30.1,30.15,West,270,3.5,3.5,86,0.00,CLR,,0.00,WeatherDisplay:10.37,2013-03-07 10:53:00,
2013-03-07 05:59:00,33.8,30.1,30.15,West,270,3.5,3.5,86,0.00,CLR,,0.00,WeatherDisplay:10.37,2013-03-07 10:59:00,
2013-03-07 06:04:00,32.0,29.9,30.16,West,270,3.5,3.5,92,0.00,CLR,,0.00,WeatherDisplay:10.37,2013-03-07 11:04:00,
2013-03-07 06:09:00,32.0,29.9,30.16,West,270,3.5,3.5,92,0.00,CLR,,0.00,WeatherDisplay:10.37,2013-03-07 11:09:00,
2013-03-07 06:14:00,32.0,29.9,30.16,West,270,3.5,3.5,92,0.00,CLR,,0.00,WeatherDisplay:10.37,2013-03-07 11:14:00,
2013-03-07 06:19:00,32.0,29.9,30.17,West,260,3.5,3.5,92,0.00,CLR,,0.00,WeatherDisplay:10.37,2013-03-07 11:19:00,
2013-03-07 06:24:00,32.0,29.9,30.17,West,260,3.5,3.5,92,0.00,CLR,,0.00,WeatherDisplay:10.37,2013-03-07 11:24:00,
2013-03-07 06:30:00,32.0,29.9,30.17,West,260,3.5,3.5,92,0.00,CLR,,0.00,WeatherDisplay:10.37,2013-03-07 11:30:00,
2013-03-07 06:35:00,32.0,29.9,30.17,West,260,3.5,3.5,92,0.00,CLR,,0.00,WeatherDisplay:10.37,2013-03-07 11:35:00,
2013-03-07 06:40:00,32.0,29.9,30.18,West,260,3.5,0.0,92,0.00,CLR,,0.00,WeatherDisplay:10.37,2013-03-07 11:40:00,
2013-03-07 06:45:00,32.0,29.9,30.18,West,260,0.0,0.0,92,0.00,CLR,,0.00,WeatherDisplay:10.37,2013-03-07 11:45:00,
2013-03-07 06:50:00,32.0,29.9,30.18,West,260,0.0,0.0,92,0.00,CLR,,0.00,WeatherDisplay:10.37,2013-03-07 11:50:00,
2013-03-07 06:55:00,32.0,29.9,30.18,West,260,0.0,0.0,92,0.00,CLR,,0.00,WeatherDisplay:10.37,2013-03-07 11:55:00,
2013-03-07 07:00:00,32.0,29.9,30.18,West,260,0.0,0.0,92,0.00,CLR,,0.00,WeatherDisplay:10.37,2013-03-07 12:00:00,
2013-03-07 07:05:00,32.0,29.9,30.18,West,260,0.0,0.0,92,0.00,CLR,,0.00,WeatherDisplay:10.37,2013-03-07 12:05:00,
2013-03-07 07:10:00,30.2,30.2,30.19,West,260,0.0,0.0,100,0.00,CLR,,0.00,WeatherDisplay:10.37,2013-03-07 12:10:00,
2013-03-07 07:15:00,30.2,30.2,30.19,West,260,0.0,0.0,100,0.00,CLR,,0.00,WeatherDisplay:10.37,2013-03-07 12:15:00,
2013-03-07 07:20:00,30.2,30.2,30.19,West,260,0.0,0.0,100,0.00,CLR,,0.00,WeatherDisplay:10.37,2013-03-07 12:20:00,
2013-03-07 07:25:00,30.2,30.2,30.19,West,260,0.0,0.0,100,0.00,CLR,,0.00,WeatherDisplay:10.37,2013-03-07 12:25:00,
2013-03-07 07:31:00,32.0,32.0,30.19,NW,320,4.6,4.6,100,0.00,CLR,,0.00,WeatherDisplay:10.37,2013-03-07 12:31:00,
2013-03-07 07:36:00,32.0,32.0,30.19,NW,320,4.6,4.6,100,0.00,CLR,,0.00,WeatherDisplay:10.37,2013-03-07 12:36:00,
2013-03-07 07:41:00,32.0,32.0,30.19,NW,320,4.6,4.6,100,0.00,CLR,,0.00,WeatherDisplay:10.37,2013-03-07 12:41:00,
2013-03-07 07:46:00,32.0,32.0,30.19,NW,320,4.6,4.6,100,0.00,CLR,,0.00,WeatherDisplay:10.37,2013-03-07 12:46:00,
2013-03-07 07:52:00,33.8,32.0,30.21,NW,320,5.8,5.8,93,0.00,CLR,,0.00,WeatherDisplay:10.37,2013-03-07 12:52:00,
2013-03-07 07:57:00,33.8,32.0,30.21,NW,320,5.8,5.8,93,0.00,CLR,,0.00,WeatherDisplay:10.37,2013-03-07 12:57:00,
2013-03-07 08:02:00,33.8,32.0,30.21,NW,320,5.8,5.8,93,0.00,CLR,,0.00,WeatherDisplay:10.37,2013-03-07 13:02:00,
2013-03-07 08:07:00,33.8,32.0,30.21,NW,320,5.8,5.8,93,0.00,CLR,,0.00,WeatherDisplay:10.37,2013-03-07 13:07:00,
2013-03-07 08:12:00,35.6,31.8,30.22,WNW,300,8.1,8.1,86,0.00,CLR,,0.00,WeatherDisplay:10.37,2013-03-07 13:12:00,
2013-03-07 08:17:00,35.6,31.8,30.22,WNW,300,8.1,8.1,86,0.00,CLR,,0.00,WeatherDisplay:10.37,2013-03-07 13:17:00,
2013-03-07 08:23:00,37.4,31.8,30.22,NW,320,10.4,10.4,80,0.00,CLR,,0.00,WeatherDisplay:10.37,2013-03-07 13:23:00,
2013-03-07 08:28:00,37.4,31.8,30.22,NW,320,10.4,10.4,80,0.00,CLR,,0.00,WeatherDisplay:10.37,2013-03-07 13:28:00,
2013-03-07 08:33:00,37.4,31.8,30.22,NW,320,10.4,10.4,80,0.00,CLR,,0.00,WeatherDisplay:10.37,2013-03-07 13:33:00,
2013-03-07 08:38:00,37.4,31.8,30.22,NW,320,10.4,10.4,80,0.00,CLR,,0.00,WeatherDisplay:10.37,2013-03-07 13:38:00,
2013-03-07 08:43:00,41.0,32.0,30.23,NNW,330,19.6,19.6,70,0.00,CLR,,0.00,WeatherDisplay:10.37,2013-03-07 13:43:00,
2013-03-07 08:48:00,41.0,32.0,30.23,NNW,330,19.6,19.6,70,0.00,CLR,,0.00,WeatherDisplay:10.37,2013-03-07 13:48:00,
2013-03-07 08:53:00,41.0,32.0,30.23,NNW,330,19.6,19.6,70,0.00,CLR,,0.00,WeatherDisplay:10.37,2013-03-07 13:53:00,
2013-03-07 08:58:00,41.0,32.0,30.23,NNW,330,19.6,19.6,70,0.00,CLR,,0.00,WeatherDisplay:10.37,2013-03-07 13:58:00,
2013-03-07 09:03:00,41.0,32.0,30.23,NNW,330,19.6,19.6,70,0.00,CLR,,0.00,WeatherDisplay:10.37,2013-03-07 14:03:00,
2013-03-07 09:08:00,41.0,32.0,30.23,NNW,330,19.6,19.6,70,0.00,CLR,,0.00,WeatherDisplay:10.37,2013-03-07 14:08:00,
2013-03-07 09:13:00,42.8,31.8,30.23,NNW,340,10.4,10.4,65,0.00,CLR,,0.00,WeatherDisplay:10.37,2013-03-07 14:13:00,
2013-03-07 09:18:00,42.8,31.8,30.23,NNW,340,10.4,10.4,65,0.00,CLR,,0.00,WeatherDisplay:10.37,2013-03-07 14:18:00,
2013-03-07 09:23:00,42.8,31.8,30.23,NNW,340,10.4,10.4,65,0.00,CLR,,0.00,WeatherDisplay:10.37,2013-03-07 14:23:00,
2013-03-07 09:28:00,42.8,31.8,30.23,NNW,340,10.4,10.4,65,0.00,CLR,,0.00,WeatherDisplay:10.37,2013-03-07 14:28:00,
2013-03-07 09:33:00,42.8,31.8,30.22,NNW,330,11.5,11.5,65,0.00,CLR,,0.00,WeatherDisplay:10.37,2013-03-07 14:33:00,
2013-03-07 09:38:00,42.8,31.8,30.22,NNW,330,12.0,12.0,65,0.00,CLR,,0.00,WeatherDisplay:10.37,2013-03-07 14:38:00,
2013-03-07 09:43:00,42.8,31.8,30.22,NNW,330,11.5,11.5,65,0.00,CLR,,0.00,WeatherDisplay:10.37,2013-03-07 14:43:00,
2013-03-07 09:48:00,42.8,31.8,30.22,NNW,330,12.0,12.0,65,0.00,CLR,,0.00,WeatherDisplay:10.37,2013-03-07 14:48:00,
2013-03-07 09:53:00,44.6,31.6,30.23,North,350,19.6,19.6,60,0.00,CLR,,0.00,WeatherDisplay:10.37,2013-03-07 14:53:00,
2013-03-07 09:58:00,44.6,31.6,30.23,North,350,9.0,20.0,60,0.00,CLR,,0.00,WeatherDisplay:10.37,2013-03-07 14:58:00,
2013-03-07 10:03:00,46.4,31.5,30.22,NNW,340,5.8,5.8,56,0.00,CLR,,0.00,WeatherDisplay:10.37,2013-03-07 15:03:00,
2013-03-07 10:08:00,46.4,31.5,30.22,NNW,340,6.0,20.0,56,0.00,CLR,,0.00,WeatherDisplay:10.37,2013-03-07 15:08:00,
2013-03-07 10:13:00,46.4,31.5,30.22,NNW,340,5.8,5.8,56,0.00,CLR,,0.00,WeatherDisplay:10.37,2013-03-07 15:13:00,
2013-03-07 10:18:00,46.4,31.5,30.22,NNW,340,5.8,5.8,56,0.00,CLR,,0.00,WeatherDisplay:10.37,2013-03-07 15:18:00,
2013-03-07 10:23:00,48.2,31.9,30.22,NNW,340,18.4,18.4,53,0.00,CLR,,0.00,WeatherDisplay:10.37,2013-03-07 15:23:00,
2013-03-07 10:29:00,48.2,31.9,30.22,NNW,340,18.4,18.4,53,0.00,CLR,,0.00,WeatherDisplay:10.37,2013-03-07 15:29:00,
2013-03-07 10:34:00,48.2,31.9,30.22,NNW,340,18.4,18.4,53,0.00,CLR,,0.00,WeatherDisplay:10.37,2013-03-07 15:34:00,
2013-03-07 10:39:00,48.2,31.9,30.22,NNW,340,18.4,18.4,53,0.00,CLR,,0.00,WeatherDisplay:10.37,2013-03-07 15:39:00,
2013-03-07 10:44:00,48.2,31.9,30.21,NNW,330,8.1,8.1,53,0.00,CLR,,0.00,WeatherDisplay:10.37,2013-03-07 15:44:00,
2013-03-07 10:49:00,48.2,31.9,30.21,NNW,330,8.1,8.1,53,0.00,CLR,,0.00,WeatherDisplay:10.37,2013-03-07 15:49:00,
2013-03-07 10:54:00,48.2,31.9,30.21,NNW,330,8.1,8.1,53,0.00,CLR,,0.00,WeatherDisplay:10.37,2013-03-07 15:54:00,
2013-03-07 10:59:00,48.2,31.9,30.21,NNW,330,8.1,8.1,53,0.00,CLR,,0.00,WeatherDisplay:10.37,2013-03-07 15:59:00,
2013-03-07 11:04:00,48.2,31.9,30.21,NNW,330,8.1,8.1,53,0.00,CLR,,0.00,WeatherDisplay:10.37,2013-03-07 16:04:00,
2013-03-07 11:09:00,48.2,31.9,30.21,NNW,330,8.1,8.1,53,0.00,CLR,,0.00,WeatherDisplay:10.37,2013-03-07 16:09:00,
2013-03-07 11:14:00,50.0,31.6,30.21,NW,310,9.2,9.2,49,0.00,CLR,,0.00,WeatherDisplay:10.37,2013-03-07 16:14:00,
2013-03-07 11:19:00,50.0,31.6,30.21,NW,310,9.2,9.2,49,0.00,CLR,,0.00,WeatherDisplay:10.37,2013-03-07 16:19:00,
2013-03-07 11:24:00,50.0,31.6,30.21,NW,310,9.2,9.2,49,0.00,CLR,,0.00,WeatherDisplay:10.37,2013-03-07 16:24:00,
2013-03-07 11:29:00,50.0,31.6,30.20,West,280,9.2,9.2,49,0.00,CLR,,0.00,WeatherDisplay:10.37,2013-03-07 16:29:00,
2013-03-07 11:34:00,50.0,31.6,30.20,West,280,6.9,6.9,49,0.00,CLR,,0.00,WeatherDisplay:10.37,2013-03-07 16:34:00,
2013-03-07 11:39:00,51.8,31.7,30.20,West,280,9.2,9.2,46,0.00,CLR,,0.00,WeatherDisplay:10.37,2013-03-07 16:39:00,
2013-03-07 11:44:00,51.8,31.7,30.20,West,280,9.2,9.2,46,0.00,CLR,,0.00,WeatherDisplay:10.37,2013-03-07 16:44:00,
2013-03-07 11:49:00,51.8,31.7,30.20,West,280,9.2,9.2,46,0.00,CLR,,0.00,WeatherDisplay:10.37,2013-03-07 16:49:00,
2013-03-07 11:54:00,51.8,31.7,30.20,West,280,9.2,9.2,46,0.00,CLR,,0.00,WeatherDisplay:10.37,2013-03-07 16:54:00,
2013-03-07 11:59:00,51.8,31.7,30.20,West,280,9.2,9.2,46,0.00,CLR,,0.00,WeatherDisplay:10.37,2013-03-07 16:59:00,
2013-03-07 12:04:00,51.8,31.7,30.20,West,280,9.2,9.2,46,0.00,CLR,,0.00,WeatherDisplay:10.37,2013-03-07 17:04:00,
2013-03-07 12:09:00,51.8,31.7,30.19,NW,310,9.2,9.2,46,0.00,CLR,,0.00,WeatherDisplay:10.37,2013-03-07 17:09:00,
2013-03-07 12:14:00,51.8,31.7,30.19,NW,310,6.9,6.9,46,0.00,CLR,,0.00,WeatherDisplay:10.37,2013-03-07 17:14:00,
2013-03-07 12:19:00,53.6,31.6,30.18,West,280,10.4,10.4,43,0.00,CLR,,0.00,WeatherDisplay:10.37,2013-03-07 17:19:00,
2013-03-07 12:24:00,53.6,31.6,30.18,West,280,10.4,10.4,43,0.00,CLR,,0.00,WeatherDisplay:10.37,2013-03-07 17:24:00,
2013-03-07 12:30:00,53.6,31.6,30.18,West,280,10.4,10.4,43,0.00,CLR,,0.00,WeatherDisplay:10.37,2013-03-07 17:30:00,
2013-03-07 12:35:00,53.6,31.6,30.18,West,280,10.4,10.4,43,0.00,CLR,,0.00,WeatherDisplay:10.37,2013-03-07 17:35:00,
2013-03-07 12:40:00,53.6,31.6,30.17,NW,320,20.7,20.7,43,0.00,CLR,,0.00,WeatherDisplay:10.37,2013-03-07 17:40:00,
2013-03-07 12:45:00,53.6,31.6,30.17,NW,320,20.7,20.7,43,0.00,CLR,,0.00,WeatherDisplay:10.37,2013-03-07 17:45:00,
2013-03-07 12:50:00,53.6,31.6,30.17,NW,320,20.7,20.7,43,0.00,CLR,,0.00,WeatherDisplay:10.37,2013-03-07 17:50:00,
2013-03-07 12:55:00,53.6,31.6,30.17,NW,320,20.7,20.7,43,0.00,CLR,,0.00,WeatherDisplay:10.37,2013-03-07 17:55:00,
2013-03-07 13:00:00,53.6,31.6,30.16,NW,310,20.7,20.7,43,0.00,CLR,,0.00,WeatherDisplay:10.37,2013-03-07 18:00:00,
2013-03-07 13:05:00,53.6,31.6,30.16,NW,310,20.7,20.7,43,0.00,CLR,,0.00,WeatherDisplay:10.37,2013-03-07 18:05:00,
2013-03-07 13:10:00,53.6,31.6,30.16,NW,310,20.7,20.7,43,0.00,CLR,,0.00,WeatherDisplay:10.37,2013-03-07 18:10:00,
2013-03-07 13:15:00,53.6,31.6,30.16,NW,310,20.7,20.7,43,0.00,CLR,,0.00,WeatherDisplay:10.37,2013-03-07 18:15:00,
2013-03-07 13:20:00,55.4,31.5,30.15,West,280,20.7,20.7,40,0.00,CLR,,0.00,WeatherDisplay:10.37,2013-03-07 18:20:00,
2013-03-07 13:26:00,55.4,31.5,30.15,West,280,9.2,9.2,40,0.00,CLR,,0.00,WeatherDisplay:10.37,2013-03-07 18:26:00,
2013-03-07 13:31:00,55.4,31.5,30.15,West,280,9.2,9.2,40,0.00,CLR,,0.00,WeatherDisplay:10.37,2013-03-07 18:31:00,
2013-03-07 13:36:00,55.4,31.5,30.15,West,280,9.2,9.2,40,0.00,CLR,,0.00,WeatherDisplay:10.37,2013-03-07 18:36:00,
2013-03-07 13:41:00,55.4,31.5,30.14,WNW,290,20.7,20.7,40,0.00,CLR,,0.00,WeatherDisplay:10.37,2013-03-07 18:41:00,
2013-03-07 13:46:00,55.4,31.5,30.14,WNW,290,20.7,20.7,40,0.00,CLR,,0.00,WeatherDisplay:10.37,2013-03-07 18:46:00,
2013-03-07 13:51:00,55.4,31.5,30.14,WNW,290,20.7,20.7,40,0.00,CLR,,0.00,WeatherDisplay:10.37,2013-03-07 18:51:00,
2013-03-07 13:56:00,55.4,31.5,30.14,WNW,290,20.7,20.7,40,0.00,CLR,,0.00,WeatherDisplay:10.37,2013-03-07 18:56:00,
2013-03-07 14:01:00,55.4,31.5,30.13,West,270,20.7,20.7,40,0.00,CLR,,0.00,WeatherDisplay:10.37,2013-03-07 19:01:00,
2013-03-07 14:06:00,55.4,31.5,30.13,West,270,20.7,20.7,40,0.00,CLR,,0.00,WeatherDisplay:10.37,2013-03-07 19:06:00,
2013-03-07 14:11:00,55.4,31.5,30.13,West,270,20.7,20.7,40,0.00,CLR,,0.00,WeatherDisplay:10.37,2013-03-07 19:11:00,
2013-03-07 14:16:00,55.4,31.5,30.13,West,270,20.7,20.7,40,0.00,CLR,,0.00,WeatherDisplay:10.37,2013-03-07 19:16:00,
2013-03-07 14:21:00,55.4,31.5,30.12,WNW,300,23.0,23.0,40,0.00,CLR,,0.00,WeatherDisplay:10.37,2013-03-07 19:21:00,
2013-03-07 14:27:00,55.4,31.5,30.12,WNW,300,23.0,23.0,40,0.00,CLR,,0.00,WeatherDisplay:10.37,2013-03-07 19:27:00,
2013-03-07 14:32:00,55.4,31.5,30.12,WNW,300,23.0,23.0,40,0.00,CLR,,0.00,WeatherDisplay:10.37,2013-03-07 19:32:00,
2013-03-07 14:37:00,55.4,31.5,30.12,WNW,300,23.0,23.0,40,0.00,CLR,,0.00,WeatherDisplay:10.37,2013-03-07 19:37:00,
2013-03-07 14:42:00,55.4,31.5,30.12,NW,320,19.6,19.6,40,0.00,CLR,,0.00,WeatherDisplay:10.37,2013-03-07 19:42:00,
2013-03-07 14:47:00,55.4,31.5,30.12,NW,320,19.6,19.6,40,0.00,CLR,,0.00,WeatherDisplay:10.37,2013-03-07 19:47:00,
2013-03-07 14:53:00,55.4,31.5,30.12,NW,320,19.6,19.6,40,0.00,CLR,,0.00,WeatherDisplay:10.37,2013-03-07 19:53:00,
2013-03-07 14:58:00,55.4,31.5,30.12,NW,320,19.6,19.6,40,0.00,CLR,,0.00,WeatherDisplay:10.37,2013-03-07 19:58:00,
2013-03-07 15:03:00,55.4,31.5,30.12,NW,320,19.6,19.6,40,0.00,CLR,,0.00,WeatherDisplay:10.37,2013-03-07 20:03:00,
2013-03-07 15:08:00,55.4,31.5,30.12,NW,320,19.6,19.6,40,0.00,CLR,,0.00,WeatherDisplay:10.37,2013-03-07 20:08:00,
2013-03-07 15:13:00,57.2,31.8,30.12,WNW,300,6.9,6.9,38,0.00,CLR,,0.00,WeatherDisplay:10.37,2013-03-07 20:13:00,
2013-03-07 15:18:00,57.2,31.8,30.12,WNW,300,6.9,6.9,38,0.00,CLR,,0.00,WeatherDisplay:10.37,2013-03-07 20:18:00,
2013-03-07 15:23:00,57.2,31.8,30.12,WNW,300,6.9,6.9,38,0.00,CLR,,0.00,WeatherDisplay:10.37,2013-03-07 20:23:00,
2013-03-07 15:28:00,57.2,31.8,30.12,WNW,300,6.9,6.9,38,0.00,CLR,,0.00,WeatherDisplay:10.37,2013-03-07 20:28:00,
2013-03-07 15:33:00,57.2,31.8,30.12,West,270,9.2,9.2,38,0.00,CLR,,0.00,WeatherDisplay:10.37,2013-03-07 20:33:00,
2013-03-07 15:38:00,57.2,31.8,30.12,West,270,9.2,9.2,38,0.00,CLR,,0.00,WeatherDisplay:10.37,2013-03-07 20:38:00,
2013-03-07 15:43:00,57.2,31.8,30.12,West,270,9.2,9.2,38,0.00,CLR,,0.00,WeatherDisplay:10.37,2013-03-07 20:43:00,
2013-03-07 15:48:00,57.2,31.8,30.12,West,270,9.2,9.2,38,0.00,CLR,,0.00,WeatherDisplay:10.37,2013-03-07 20:48:00,
2013-03-07 15:53:00,59.0,31.4,30.12,WNW,290,5.8,5.8,35,0.00,CLR,,0.00,WeatherDisplay:10.37,2013-03-07 20:53:00,
2013-03-07 15:58:00,59.0,31.4,30.12,WNW,290,5.8,5.8,35,0.00,CLR,,0.00,WeatherDisplay:10.37,2013-03-07 20:58:00,
2013-03-07 16:03:00,59.0,31.4,30.12,WNW,290,5.8,5.8,35,0.00,CLR,,0.00,WeatherDisplay:10.37,2013-03-07 21:03:00,
2013-03-07 16:08:00,59.0,31.4,30.12,WNW,290,5.8,5.8,35,0.00,CLR,,0.00,WeatherDisplay:10.37,2013-03-07 21:08:00,
2013-03-07 16:13:00,59.0,31.4,30.12,WNW,290,18.4,18.4,35,0.00,CLR,,0.00,WeatherDisplay:10.37,2013-03-07 21:13:00,
2013-03-07 16:18:00,59.0,31.4,30.12,WNW,290,18.4,18.4,35,0.00,CLR,,0.00,WeatherDisplay:10.37,2013-03-07 21:18:00,
2013-03-07 16:23:00,59.0,31.4,30.12,NNW,330,19.6,19.6,35,0.00,CLR,,0.00,WeatherDisplay:10.37,2013-03-07 21:23:00,
2013-03-07 16:28:00,59.0,31.4,30.12,NNW,330,19.6,19.6,35,0.00,CLR,,0.00,WeatherDisplay:10.37,2013-03-07 21:28:00,
2013-03-07 16:33:00,59.0,31.4,30.12,NNW,330,19.6,19.6,35,0.00,CLR,,0.00,WeatherDisplay:10.37,2013-03-07 21:33:00,
2013-03-07 16:38:00,59.0,31.4,30.12,NNW,330,19.6,19.6,35,0.00,CLR,,0.00,WeatherDisplay:10.37,2013-03-07 21:38:00,
2013-03-07 16:43:00,59.0,31.4,30.12,NNW,330,19.6,19.6,35,0.00,CLR,,0.00,WeatherDisplay:10.37,2013-03-07 21:43:00,
2013-03-07 16:48:00,59.0,31.4,30.12,NNW,330,19.6,19.6,35,0.00,CLR,,0.00,WeatherDisplay:10.37,2013-03-07 21:48:00,
2013-03-07 16:53:00,59.0,33.4,30.12,WNW,290,10.4,10.4,38,0.00,CLR,,0.00,WeatherDisplay:10.37,2013-03-07 21:53:00,
2013-03-07 16:58:00,59.0,33.4,30.12,WNW,290,10.4,10.4,38,0.00,CLR,,0.00,WeatherDisplay:10.37,2013-03-07 21:58:00,
2013-03-07 17:03:00,59.0,33.4,30.12,WNW,290,10.4,10.4,38,0.00,CLR,,0.00,WeatherDisplay:10.37,2013-03-07 22:03:00,
2013-03-07 17:09:00,59.0,33.4,30.12,WNW,290,10.4,10.4,38,0.00,CLR,,0.00,WeatherDisplay:10.37,2013-03-07 22:09:00,
2013-03-07 17:14:00,59.0,31.4,30.12,WNW,290,9.2,9.2,35,0.00,CLR,,0.00,WeatherDisplay:10.37,2013-03-07 22:14:00,
2013-03-07 17:19:00,59.0,31.4,30.12,WNW,290,9.2,9.2,35,0.00,CLR,,0.00,WeatherDisplay:10.37,2013-03-07 22:19:00,
2013-03-07 17:24:00,59.0,31.4,30.12,WNW,290,9.2,9.2,35,0.00,CLR,,0.00,WeatherDisplay:10.37,2013-03-07 22:24:00,
2013-03-07 17:29:00,59.0,31.4,30.12,WNW,290,9.2,9.2,35,0.00,CLR,,0.00,WeatherDisplay:10.37,2013-03-07 22:29:00,
2013-03-07 17:34:00,57.2,31.8,30.13,NW,310,5.8,5.8,38,0.00,CLR,,0.00,WeatherDisplay:10.37,2013-03-07 22:34:00,
2013-03-07 17:39:00,57.2,31.8,30.13,NW,310,5.8,5.8,38,0.00,CLR,,0.00,WeatherDisplay:10.37,2013-03-07 22:39:00,
2013-03-07 17:44:00,57.2,31.8,30.13,NW,310,5.8,5.8,38,0.00,CLR,,0.00,WeatherDisplay:10.37,2013-03-07 22:44:00,
2013-03-07 17:49:00,57.2,31.8,30.13,NW,310,5.8,5.8,38,0.00,CLR,,0.00,WeatherDisplay:10.37,2013-03-07 22:49:00,
2013-03-07 17:54:00,55.4,31.5,30.13,NW,310,8.1,8.1,40,0.00,CLR,,0.00,WeatherDisplay:10.37,2013-03-07 22:54:00,
2013-03-07 17:59:00,55.4,31.5,30.13,NW,310,8.1,8.1,40,0.00,CLR,,0.00,WeatherDisplay:10.37,2013-03-07 22:59:00,
2013-03-07 18:04:00,55.4,31.5,30.14,NW,320,6.9,6.9,40,0.00,CLR,,0.00,WeatherDisplay:10.37,2013-03-07 23:04:00,
2013-03-07 18:09:00,55.4,31.5,30.14,NW,320,6.9,6.9,40,0.00,CLR,,0.00,WeatherDisplay:10.37,2013-03-07 23:09:00,
2013-03-07 18:14:00,55.4,31.5,30.14,NW,320,6.9,6.9,40,0.00,CLR,,0.00,WeatherDisplay:10.37,2013-03-07 23:14:00,
2013-03-07 18:19:00,55.4,31.5,30.14,NW,320,6.9,6.9,40,0.00,CLR,,0.00,WeatherDisplay:10.37,2013-03-07 23:19:00,
2013-03-07 18:24:00,53.6,31.6,30.14,NW,320,4.6,4.6,43,0.00,CLR,,0.00,WeatherDisplay:10.37,2013-03-07 23:24:00,
2013-03-07 18:29:00,53.6,31.6,30.14,NW,320,4.6,4.6,43,0.00,CLR,,0.00,WeatherDisplay:10.37,2013-03-07 23:29:00,
2013-03-07 18:34:00,53.6,31.6,30.14,NW,320,4.6,4.6,43,0.00,CLR,,0.00,WeatherDisplay:10.37,2013-03-07 23:34:00,
2013-03-07 18:39:00,53.6,31.6,30.14,NW,320,4.6,4.6,43,0.00,CLR,,0.00,WeatherDisplay:10.37,2013-03-07 23:39:00,
2013-03-07 18:44:00,51.8,33.7,30.15,NW,320,0.0,0.0,50,0.00,CLR,,0.00,WeatherDisplay:10.37,2013-03-07 23:44:00,
2013-03-07 18:49:00,51.8,33.7,30.15,NW,320,0.0,0.0,50,0.00,CLR,,0.00,WeatherDisplay:10.37,2013-03-07 23:49:00,
2013-03-07 18:54:00,51.8,33.7,30.15,NW,320,0.0,0.0,50,0.00,CLR,,0.00,WeatherDisplay:10.37,2013-03-07 23:54:00,
2013-03-07 18:59:00,51.8,33.7,30.15,NW,320,0.0,0.0,50,0.00,CLR,,0.00,WeatherDisplay:10.37,2013-03-07 23:59:00,
2013-03-07 19:04:00,51.8,33.7,30.15,NW,320,0.0,0.0,50,0.00,CLR,,0.00,WeatherDisplay:10.37,2013-03-08 00:04:00,
2013-03-07 19:09:00,51.8,33.7,30.15,NW,320,0.0,0.0,50,0.00,CLR,,0.00,WeatherDisplay:10.37,2013-03-08 00:09:00,
2013-03-07 19:14:00,44.6,35.4,30.17,NW,320,0.0,0.0,70,0.00,CLR,,0.00,WeatherDisplay:10.37,2013-03-08 00:14:00,
2013-03-07 19:19:00,44.6,35.4,30.17,NW,320,0.0,0.0,70,0.00,CLR,,0.00,WeatherDisplay:10.37,2013-03-08 00:19:00,
2013-03-07 19:24:00,44.6,35.4,30.17,NW,320,0.0,0.0,70,0.00,CLR,,0.00,WeatherDisplay:10.37,2013-03-08 00:24:00,
2013-03-07 19:29:00,44.6,35.4,30.17,NW,320,0.0,0.0,70,0.00,CLR,,0.00,WeatherDisplay:10.37,2013-03-08 00:29:00,
2013-03-07 19:34:00,44.6,35.4,30.17,NW,320,0.0,0.0,70,0.00,CLR,,0.00,WeatherDisplay:10.37,2013-03-08 00:34:00,
2013-03-07 19:39:00,44.6,35.4,30.17,NW,320,0.0,0.0,70,0.00,CLR,,0.00,WeatherDisplay:10.37,2013-03-08 00:39:00,
2013-03-07 19:44:00,44.6,35.4,30.17,NW,320,0.0,0.0,70,0.00,CLR,,0.00,WeatherDisplay:10.37,2013-03-08 00:44:00,
2013-03-07 19:49:00,44.6,35.4,30.17,NW,320,0.0,0.0,70,0.00,CLR,,0.00,WeatherDisplay:10.37,2013-03-08 00:49:00,
2013-03-07 19:54:00,44.6,35.4,30.17,NW,320,0.0,0.0,70,0.00,CLR,,0.00,WeatherDisplay:10.37,2013-03-08 00:54:00,
2013-03-07 19:59:00,44.6,35.4,30.17,NW,320,0.0,0.0,70,0.00,CLR,,0.00,WeatherDisplay:10.37,2013-03-08 00:59:00,
2013-03-07 20:05:00,44.6,35.4,30.17,NW,320,0.0,0.0,70,0.00,CLR,,0.00,WeatherDisplay:10.37,2013-03-08 01:05:00,
2013-03-07 20:10:00,44.6,35.4,30.17,NW,320,0.0,0.0,70,0.00,CLR,,0.00,WeatherDisplay:10.37,2013-03-08 01:10:00,
2013-03-07 20:15:00,44.6,35.4,30.17,NW,320,0.0,0.0,70,0.00,CLR,,0.00,WeatherDisplay:10.37,2013-03-08 01:15:00,
2013-03-07 20:20:00,44.6,35.4,30.17,NW,320,0.0,0.0,70,0.00,CLR,,0.00,WeatherDisplay:10.37,2013-03-08 01:20:00,
2013-03-07 20:25:00,44.6,35.4,30.17,NW,320,0.0,0.0,70,0.00,CLR,,0.00,WeatherDisplay:10.37,2013-03-08 01:25:00,
2013-03-07 20:30:00,44.6,35.4,30.17,NW,320,0.0,0.0,70,0.00,CLR,,0.00,WeatherDisplay:10.37,2013-03-08 01:30:00,
2013-03-07 20:35:00,44.6,35.4,30.17,NW,320,0.0,0.0,70,0.00,CLR,,0.00,WeatherDisplay:10.37,2013-03-08 01:35:00,
2013-03-07 20:40:00,44.6,35.4,30.17,NW,320,0.0,0.0,70,0.00,CLR,,0.00,WeatherDisplay:10.37,2013-03-08 01:40:00,
2013-03-07 20:45:00,44.6,35.4,30.17,NW,320,0.0,0.0,70,0.00,CLR,,0.00,WeatherDisplay:10.37,2013-03-08 01:45:00,
2013-03-07 20:50:00,44.6,35.4,30.17,NW,320,0.0,0.0,70,0.00,CLR,,0.00,WeatherDisplay:10.37,2013-03-08 01:50:00,
2013-03-07 20:55:00,44.6,35.4,30.17,NW,320,0.0,0.0,70,0.00,CLR,,0.00,WeatherDisplay:10.37,2013-03-08 01:55:00,
2013-03-07 21:00:00,44.6,35.4,30.17,NW,320,0.0,0.0,70,0.00,CLR,,0.00,WeatherDisplay:10.37,2013-03-08 02:00:00,
2013-03-07 21:05:00,44.6,35.4,30.17,NW,320,0.0,0.0,70,0.00,CLR,,0.00,WeatherDisplay:10.37,2013-03-08 02:05:00,
2013-03-07 21:10:00,44.6,35.4,30.17,NW,320,0.0,0.0,70,0.00,CLR,,0.00,WeatherDisplay:10.37,2013-03-08 02:10:00,
2013-03-07 21:15:00,44.6,35.4,30.17,NW,320,0.0,0.0,70,0.00,CLR,,0.00,WeatherDisplay:10.37,2013-03-08 02:15:00,
2013-03-07 21:20:00,44.6,35.4,30.17,NW,320,0.0,0.0,70,0.00,CLR,,0.00,WeatherDisplay:10.37,2013-03-08 02:20:00,
2013-03-07 21:25:00,44.6,35.4,30.17,NW,320,0.0,0.0,70,0.00,CLR,,0.00,WeatherDisplay:10.37,2013-03-08 02:25:00,
2013-03-07 21:30:00,44.6,35.4,30.17,NW,320,0.0,0.0,70,0.00,CLR,,0.00,WeatherDisplay:10.37,2013-03-08 02:30:00,
2013-03-07 21:35:00,44.6,35.4,30.17,NW,320,0.0,0.0,70,0.00,CLR,,0.00,WeatherDisplay:10.37,2013-03-08 02:35:00,
2013-03-07 21:40:00,37.4,33.6,30.20,NW,320,0.0,0.0,86,0.00,CLR,,0.00,WeatherDisplay:10.37,2013-03-08 02:40:00,
2013-03-07 21:45:00,37.4,33.6,30.20,NW,320,0.0,0.0,86,0.00,CLR,,0.00,WeatherDisplay:10.37,2013-03-08 02:45:00,
2013-03-07 21:50:00,37.4,33.6,30.20,NW,320,0.0,0.0,86,0.00,CLR,,0.00,WeatherDisplay:10.37,2013-03-08 02:50:00,
2013-03-07 21:55:00,37.4,33.6,30.20,NW,320,0.0,0.0,86,0.00,CLR,,0.00,WeatherDisplay:10.37,2013-03-08 02:55:00,
2013-03-07 22:00:00,37.4,33.6,30.20,NW,320,0.0,0.0,86,0.00,CLR,,0.00,WeatherDisplay:10.37,2013-03-08 03:00:00,
2013-03-07 22:05:00,37.4,33.6,30.20,NW,320,0.0,0.0,86,0.00,CLR,,0.00,WeatherDisplay:10.37,2013-03-08 03:05:00,
2013-03-07 22:10:00,37.4,35.6,30.21,NW,320,0.0,0.0,93,0.00,CLR,,0.00,WeatherDisplay:10.37,2013-03-08 03:10:00,
2013-03-07 22:15:00,37.4,35.6,30.21,NW,320,0.0,0.0,93,0.00,CLR,,0.00,WeatherDisplay:10.37,2013-03-08 03:15:00,
2013-03-07 22:20:00,37.4,35.6,30.21,NW,320,0.0,0.0,93,0.00,CLR,,0.00,WeatherDisplay:10.37,2013-03-08 03:20:00,
2013-03-07 22:25:00,37.4,35.6,30.21,NW,320,0.0,0.0,93,0.00,CLR,,0.00,WeatherDisplay:10.37,2013-03-08 03:25:00,
2013-03-07 22:30:00,37.4,33.6,30.21,NW,320,0.0,0.0,86,0.00,CLR,,0.00,WeatherDisplay:10.37,2013-03-08 03:30:00,
2013-03-07 22:35:00,37.4,33.6,30.21,NW,320,0.0,0.0,86,0.00,CLR,,0.00,WeatherDisplay:10.37,2013-03-08 03:35:00,
2013-03-07 22:40:00,37.4,33.6,30.21,NW,320,0.0,0.0,86,0.00,CLR,,0.00,WeatherDisplay:10.37,2013-03-08 03:40:00,
2013-03-07 22:45:00,37.4,33.6,30.21,NW,320,0.0,0.0,86,0.00,CLR,,0.00,WeatherDisplay:10.37,2013-03-08 03:45:00,
2013-03-07 22:51:00,37.4,33.6,30.21,NW,320,0.0,0.0,86,0.00,CLR,,0.00,WeatherDisplay:10.37,2013-03-08 03:51:00,
2013-03-07 22:56:00,37.4,33.6,30.21,NW,320,0.0,0.0,86,0.00,CLR,,0.00,WeatherDisplay:10.37,2013-03-08 03:56:00,
2013-03-07 23:01:00,37.4,33.6,30.21,NW,320,0.0,0.0,86,0.00,CLR,,0.00,WeatherDisplay:10.37,2013-03-08 04:01:00,
2013-03-07 23:06:00,37.4,33.6,30.21,NW,320,0.0,0.0,86,0.00,CLR,,0.00,WeatherDisplay:10.37,2013-03-08 04:06:00,
2013-03-07 23:11:00,37.4,33.6,30.21,NW,320,0.0,0.0,86,0.00,CLR,,0.00,WeatherDisplay:10.37,2013-03-08 04:11:00,
2013-03-07 23:16:00,37.4,33.6,30.21,NW,320,0.0,0.0,86,0.00,CLR,,0.00,WeatherDisplay:10.37,2013-03-08 04:16:00,
2013-03-07 23:21:00,33.8,33.8,30.21,NW,320,0.0,0.0,100,0.00,CLR,,0.00,WeatherDisplay:10.37,2013-03-08 04:21:00,
2013-03-07 23:26:00,33.8,33.8,30.21,NW,320,0.0,0.0,100,0.00,CLR,,0.00,WeatherDisplay:10.37,2013-03-08 04:26:00,
2013-03-07 23:31:00,33.8,33.8,30.21,NW,320,0.0,0.0,100,0.00,CLR,,0.00,WeatherDisplay:10.37,2013-03-08 04:31:00,
2013-03-07 23:36:00,33.8,33.8,30.21,NW,320,0.0,0.0,100,0.00,CLR,,0.00,WeatherDisplay:10.37,2013-03-08 04:36:00,
2013-03-07 23:41:00,33.8,33.8,30.22,NW,320,0.0,0.0,100,0.00,CLR,,0.00,WeatherDisplay:10.37,2013-03-08 04:41:00,
2013-03-07 23:46:00,33.8,33.8,30.22,NW,320,0.0,0.0,100,0.00,CLR,,0.00,WeatherDisplay:10.37,2013-03-08 04:46:00,
2013-03-07 23:51:00,33.8,33.8,30.22,NW,320,0.0,0.0,100,0.00,CLR,,0.00,WeatherDisplay:10.37,2013-03-08 04:51:00,
2013-03-07 23:56:00,33.8,33.8,30.22,NW,320,0.0,0.0,100,0.00,CLR,,0.00,WeatherDisplay:10.37,2013-03-08 04:56:00,